<?xml version='1.0' encoding='UTF-8'?>
<gpx xmlns="http://www.topografix.com/GPX/1/1" creator="www.balnam.be" version="1.1" xmlns:xsi="http://www.w3.org/2001/XMLSchema-instance" xsi:schemaLocation="http://www.topografix.com/GPX/1/1 http://www.topografix.com/GPX/1/1/gpx.xsd">
<trk>
<name>hlsls11</name>
<cmt>v</cmt>
<desc>Lessines Chemin n°11 </desc>
<link href="https://chemins.be/lessines/chemin/11"/><trkseg>
<trkpt lat="50.717926" lon="3.819358"><time>2026-05-02T20:49:52Z</time></trkpt>
<trkpt lat="50.717891" lon="3.819628"><time>2026-05-02T20:59:52Z</time></trkpt>
<trkpt lat="50.717856" lon="3.819897"><time>2026-05-02T21:09:52Z</time></trkpt>
<trkpt lat="50.717884" lon="3.820123"><time>2026-05-02T21:19:52Z</time></trkpt>
<trkpt lat="50.718003" lon="3.820448"><time>2026-05-02T21:29:52Z</time></trkpt>
<trkpt lat="50.718166" lon="3.820771"><time>2026-05-02T21:39:52Z</time></trkpt>
<trkpt lat="50.718267" lon="3.821124"><time>2026-05-02T21:49:52Z</time></trkpt>
<trkpt lat="50.718304" lon="3.821492"><time>2026-05-02T21:59:52Z</time></trkpt>
<trkpt lat="50.718305" lon="3.821704"><time>2026-05-02T22:09:52Z</time></trkpt>
<trkpt lat="50.718262" lon="3.822002"><time>2026-05-02T22:19:52Z</time></trkpt>
<trkpt lat="50.718200" lon="3.822258"><time>2026-05-02T22:29:52Z</time></trkpt>
<trkpt lat="50.718201" lon="3.822371"><time>2026-05-02T22:39:52Z</time></trkpt>
<trkpt lat="50.718256" lon="3.822597"><time>2026-05-02T22:49:52Z</time></trkpt>
<trkpt lat="50.718256" lon="3.822739"><time>2026-05-02T22:59:52Z</time></trkpt>
<trkpt lat="50.718169" lon="3.823221"><time>2026-05-02T23:09:52Z</time></trkpt>
<trkpt lat="50.718142" lon="3.823391"><time>2026-05-02T23:19:52Z</time></trkpt>
<trkpt lat="50.718207" lon="3.823674"><time>2026-05-02T23:29:52Z</time></trkpt>
<trkpt lat="50.718270" lon="3.823829"><time>2026-05-02T23:39:52Z</time></trkpt>
<trkpt lat="50.718370" lon="3.823969"><time>2026-05-02T23:49:52Z</time></trkpt>
<trkpt lat="50.718478" lon="3.824081"><time>2026-05-02T23:59:52Z</time></trkpt>
<trkpt lat="50.718578" lon="3.824151"><time>2026-05-03T00:09:52Z</time></trkpt>
<trkpt lat="50.718677" lon="3.824207"><time>2026-05-03T00:19:52Z</time></trkpt>
<trkpt lat="50.718803" lon="3.824248"><time>2026-05-03T00:29:52Z</time></trkpt>
<trkpt lat="50.718974" lon="3.824345"><time>2026-05-03T00:39:52Z</time></trkpt>
<trkpt lat="50.719100" lon="3.824442"><time>2026-05-03T00:49:52Z</time></trkpt>
</trkseg>
</trk>
</gpx>